Weather History for KJAC - June, 2013

Change the Weather History Date:

Friday, June 21, 2013

  Actual Average Record
Temperature  
Mean Temperature 48 °F -  
Max Temperature 64 °F 72 °F 87 °F (1961)
Min Temperature 33 °F 38 °F 26 °F (1960)
Degree Days  
Heating Degree Days 16    
Moisture  
Dew Point 30 °F    
Average Humidity 56    
Maximum Humidity 81    
Minimum Humidity 24    
Precipitation  
Precipitation 0.00 in - - ()
Sea Level Pressure  
Sea Level Pressure 30.07 in    
Wind  
Wind Speed 4 mph (NNW)    
Max Wind Speed 18 mph    
Max Gust Speed 25 mph    
Visibility 10 miles    
Events      
Averages and records for this station are not official NWS values.
T = Trace of Precipitation, MM = Missing Value Source: NWS Daily Summary

Daily Weather History Graph

Daily Weather History Graph

Search for Another Location

Airport or City:

Trip Planner

Search our weather history database for the weather conditions in past years. The results will help you decide how hot, cold, wet, or windy it might be!

Date:

Astronomy

Jun. 21, 2013 Rise Set
Actual Time 5:41 AM MDT 9:08 PM MDT
Civil Twilight 5:05 AM MDT 9:43 PM MDT
Nautical Twilight 4:18 AM MDT 10:31 PM MDT
Astronomical Twilight 3:19 AM MDT 11:30 PM MDT
Moon 7:20 PM MDT (6/21) 4:03 AM MDT (6/21)
Length of Visible Light 16h 38m
Length of Day
15h 26m
Waxing Gibbous, 95% of the Moon is Illuminated
Jun 21
Waxing Gibbous
Jun 23
Full
Jun 29
Last Quarter
Jul 8
New
Jul 15
First Quarter

Hourly Weather History & Observations

Time (MDT) Temp. Windchill Dew Point Humidity Pressure Visibility Wind Dir Wind Speed Gust Speed Precip Events Conditions
12:15 AM 42.8 °F 40.1 °F 28.4 °F 57% 30.09 in 10.0 mi ENE 4.6 mph - N/A   Clear
12:35 AM 41.0 °F - 28.4 °F 61% 30.08 in 10.0 mi Calm Calm - N/A   Clear
12:55 AM 39.2 °F - 28.4 °F 65% 30.08 in 10.0 mi Calm Calm - N/A   Clear
1:15 AM 37.4 °F 32.1 °F 28.4 °F 70% 30.07 in 10.0 mi North 6.9 mph - N/A   Clear
1:35 AM 35.6 °F 31.7 °F 28.4 °F 75% 30.07 in 10.0 mi NE 4.6 mph - N/A   Clear
1:55 AM 39.2 °F - 30.2 °F 70% 30.07 in 10.0 mi Calm Calm - N/A   Clear
2:35 AM 37.4 °F 33.8 °F 30.2 °F 75% 30.07 in 10.0 mi NNE 4.6 mph - N/A   Clear
2:55 AM 33.8 °F 29.6 °F 28.4 °F 81% 30.07 in 10.0 mi NNE 4.6 mph - N/A   Clear
3:15 AM 35.6 °F 32.8 °F 28.4 °F 75% 30.07 in 10.0 mi North 3.5 mph - N/A   Mostly Cloudy
3:35 AM 37.4 °F 34.9 °F 30.2 °F 75% 30.07 in - NNE 3.5 mph - N/A   Overcast
3:55 AM 39.2 °F - 30.2 °F 70% 30.07 in 10.0 mi Calm Calm - N/A   Overcast
4:35 AM 39.2 °F - 30.2 °F 70% 30.07 in 10.0 mi Calm Calm - N/A   Overcast
4:55 AM 37.4 °F - 30.2 °F 75% 30.08 in 10.0 mi Calm Calm - N/A   Overcast
5:15 AM 39.2 °F 35.9 °F 30.2 °F 70% 30.07 in 10.0 mi ESE 4.6 mph - N/A   Overcast
5:35 AM 37.4 °F 33.8 °F 30.2 °F 75% 30.07 in 10.0 mi WNW 4.6 mph - N/A   Scattered Clouds
5:55 AM 35.6 °F 29.9 °F 30.2 °F 81% 30.06 in 10.0 mi NNW 6.9 mph - N/A   Scattered Clouds
6:15 AM 37.4 °F 33.8 °F 30.2 °F 75% 30.06 in 10.0 mi NNE 4.6 mph - N/A   Partly Cloudy
6:35 AM 37.4 °F 32.8 °F 28.4 °F 70% 30.06 in 10.0 mi East 5.8 mph - N/A   Clear
6:51 AM 37.4 °F 31.4 °F 30.2 °F 75% 30.06 in 10.0 mi ESE 8.1 mph - N/A   Mostly Cloudy
7:52 AM 42.8 °F 39.3 °F 32.0 °F 66% 30.07 in 10.0 mi South 5.8 mph - N/A   Mostly Cloudy
8:51 AM 44.6 °F 43.1 °F 32.0 °F 61% 30.09 in 10.0 mi NW 3.5 mph - N/A   Overcast
9:51 AM 50.0 °F - 30.2 °F 47% 30.09 in 10.0 mi Calm Calm - N/A   Mostly Cloudy
11:52 AM 59.0 °F - 30.2 °F 34% 30.06 in 10.0 mi West 4.6 mph - N/A   Scattered Clouds
12:55 PM 64.4 °F - 28.4 °F 26% 30.05 in 10.0 mi South 10.4 mph - N/A   Scattered Clouds
1:51 PM 64.4 °F - 28.4 °F 26% 30.05 in 10.0 mi SSW 13.8 mph 23.0 mph N/A   Scattered Clouds
2:53 PM 64.4 °F - 26.6 °F 24% 30.04 in 10.0 mi SW 18.4 mph 25.3 mph N/A   Clear
3:51 PM 64.4 °F - 26.6 °F 24% 30.05 in 10.0 mi SW 17.3 mph 24.2 mph N/A   Scattered Clouds
4:51 PM 64.4 °F - 26.6 °F 24% 30.05 in 10.0 mi SW 10.4 mph 20.7 mph N/A   Scattered Clouds
5:58 PM 64.4 °F - 30.2 °F 28% 30.05 in 10.0 mi SW 6.9 mph 16.1 mph N/A   Scattered Clouds
6:51 PM 60.8 °F - 30.2 °F 31% 30.05 in 10.0 mi West 16.1 mph 19.6 mph N/A   Scattered Clouds
7:52 PM 57.2 °F - 33.8 °F 41% 30.07 in 10.0 mi West 9.2 mph - N/A   Partly Cloudy
8:51 PM 53.6 °F - 32.0 °F 44% 30.08 in 10.0 mi WSW 4.6 mph - N/A   Partly Cloudy
9:15 PM 53.6 °F - 32.0 °F 44% 30.09 in 10.0 mi Calm Calm - N/A   Scattered Clouds
9:35 PM 55.4 °F - 30.2 °F 38% 30.09 in 10.0 mi West 4.6 mph - N/A   Scattered Clouds
9:55 PM 55.4 °F - 30.2 °F 38% 30.10 in 10.0 mi ENE 3.5 mph - N/A   Partly Cloudy
10:15 PM 51.8 °F - 32.0 °F 47% 30.10 in 10.0 mi Calm Calm - N/A   Partly Cloudy
10:35 PM 51.8 °F - 32.0 °F 47% 30.11 in 10.0 mi Calm Calm - N/A   Clear
10:55 PM 48.2 °F - 33.8 °F 58% 30.11 in 10.0 mi North 3.5 mph - N/A   Clear
11:15 PM 46.4 °F - 33.8 °F 62% 30.11 in 10.0 mi Calm Calm - N/A   Clear
11:55 PM 42.8 °F 41.1 °F 30.2 °F 61% 30.10 in 10.0 mi ENE 3.5 mph - N/A   Clear